Погода в Ловране

Хорватия     45°17′37″N   14°16′35″E
темп.,
°C
ветер,
м/с
пор.,
м/с
влажн.,
%
обл.,
%
осадки,
мм/ч
давл.,
гПа
погр.,
м
14 мая, пт
пт1423:00+12вюв2392100 0.9 1007242
02:00+12ссв339394 3.0 1008155
05:00+10с328857 0.0 100780
08:00+13в128559 0.1 1008206
11:00+12в119096 0.9 1010131
14:00+13ююв248795 2.1 1010424
17:00+14ююв3481100 1.3 1010666
20:00+13юв1286100 1.4 101044
15 мая, сб
сб1523:00+12в1188100 0.7 101147
02:00+11в1295100 5.4 1011157
05:00+12ссз2388100 0.5 1010110
08:00+13ссв128298 0.6 1011152
11:00+14ююз117433 0.6 1011325
14:00+15ююз227764 1.9 1011291
17:00+15ююв458263 1.4 1010420
20:00+13ююв248810 1.8 1010154
16 мая, вс
вс1623:00+12юв2493100 1.0 1009242
02:00+12сз128864 2.0 1009103
05:00+12всв118971 0.1 1008135
08:00+13вюв2290100 0.4 1010256
11:00+13юв239296 1.5 1011336
14:00+13ююв4593100 3.8 1011452
17:00+13ююв5893100 3.4 1010603
20:00+14ююв5897100 5.8 1009543
17 мая, пн
пн1723:00+14ююв4997100 3.2 1010728
02:00+15ю4691100 5.5 1008157
05:00+14ю61096100 4.8 1007683
08:00+15ююз1290100 7.0 1008120
11:00+16ю3486100 1.1 1009319
14:00+16ю478298 2.5 1009416
17:00+16ююв477831 0.6 1008463
20:00+14ююв36890 1.6 1009118
18 мая, вт
вт1823:00+12с458839 0.4 101098
02:00+11св458953 0.7 1011150
05:00+10ссв458795 1.3 1012232
08:00+10св248497 3.1 1014246
11:00+15в125612 0.0 1014657
14:00+16ю2253100 0.1 10131002
17:00+16з227094 1.9 1013308
20:00+13с578393 3.0 1015189